Hourly Data Report for October 02, 2017

All times are specified in Local Standard Time (LST). Add 1 hour to adjust for Daylight Saving Time where and when it is observed.

TADOULE LAKE
MANITOBA

58°42'22.000" N
98°30'44.000" W
281.30 m
5062835
71272
YBQ

Download Data

Hourly Data (October 2017)
Hourly Data Report for October 2, 2017
Temp Definition
°C
Dew Point Temp Definition
°C
Rel Hum Definition
%
Wind Dir Definition
10's deg

Wind Spd Definition
km/h
Visibility Definition
km
Stn Press Definition
kPa
Hmdx Definition


Wind Chill Definition


Weather Definition


TIME
00:00 Legend Double Dagger 8.0 8.0 100 10 11 14.5 97.43     LegendNANA
01:00 Legend Double Dagger 8.1 8.1 100 11 11 16.1 97.41     LegendNANA
02:00 Legend Double Dagger 8.0 8.0 100 8 5 16.1 97.39     LegendNANA
03:00 Legend Double Dagger 7.7 7.7 100 5 5 2.4 97.37     Fog
04:00 Legend Double Dagger 7.4 7.4 100 5 8 1.2 97.36     Rain,Fog
05:00 Legend Double Dagger 7.2 7.2 100 3 5 4.0 97.37     Fog
06:00 Legend Double Dagger 7.1 7.1 100 LegendMM 4 2.0 97.38     Fog
07:00 Legend Double Dagger 7.1 7.1 100 34 11 0.4 97.38     Fog
08:00 Legend Double Dagger 7.1 7.1 100 35 13 2.8 97.43     Fog
09:00 Legend Double Dagger 6.9 6.9 100 35 18 4.0 97.47     Fog
10:00 Legend Double Dagger 6.5 6.4 99 35 18 6.4 97.53     Rain,Fog
11:00 Legend Double Dagger 5.2 4.9 98 36 18 4.8 97.63     Rain,Fog
12:00 Legend Double Dagger 3.6 3.5 99 35 21 3.2 97.73     Rain,Fog
13:00 Legend Double Dagger 3.2 2.7 97 1 28 6.4 97.79     Rain,Fog
14:00 Legend Double Dagger 2.5 2.1 97 36 26 9.7 97.88     Fog
15:00 Legend Double Dagger 2.3 1.0 91 36 30 16.1 97.97     LegendNANA
16:00 Legend Double Dagger 1.8 0.2 89 1 21 16.1 98.05     LegendNANA
17:00 Legend Double Dagger 2.7 0.3 84 36 21 16.1 98.13     LegendNANA
18:00 Legend Double Dagger 2.2 -1.4 77 36 21 16.1 98.21     LegendNANA
19:00 Legend Double Dagger 1.7 -1.5 80 35 21 16.1 98.27     LegendNANA
20:00 Legend Double Dagger 1.4 -1.4 81 35 17 16.1 98.33     LegendNANA
21:00 Legend Double Dagger 1.9 -1.8 76 36 18 16.1 98.37     LegendNANA
22:00 Legend Double Dagger 1.1 -1.7 82 35 11 16.1 98.40     LegendNANA
23:00 Legend Double Dagger 0.0 -1.8 88 31 8 16.1 98.40   -3 LegendNANA

Notes on Data Quality.

Legend

  • E = Estimated
  • M = Missing
  • NA = Not Available
  • ‡ = Partner data that is not subject to review by the National Climate Archives
Date modified: